Location: Laura�t
(43.9341°N, 0.2497°E)
Time: 22:59:14
(UTC+00:00)

Meteor 1-13 Rocket - Pass Details

Date: 03 March 2021
Orbit: 830 x 913 km, 81.3° (Epoch: 17 April)

Event Time Altitude Azimuth Distance (km) Brightness Sun altitude
Rises 19:36:15 0° 351° (N) 3,556 7.7 -19.8°
Reaches altitude 10° 19:38:45 10° 353° (N) 2,607 6.9 -20.3°
Maximum altitude 19:44:43 73° 79° (E) 943 4.2 -21.3°
Enters shadow 19:48:35 22° 160° (SSE) 1,839 5.7 -22.0°
